Location: Ithaca
(42.4410°N, 76.4970°W)
Time: 10:50:33
(UTC-04:00)

ISS - Visible Passes

Search period start: 02 September 2015 00:00
Search period end: 12 September 2015 00:00
Orbit: 400 x 403 km, 51.6° (Epoch: 01 September)

Date Brightness Start Highest point End Pass type
(mag) Time Alt. Az. Time Alt. Az. Time Alt. Az.
08 Sep -1.8 06:05:55 10° SSW 06:08:51 32° SE 06:11:50 10° ENE visible
09 Sep -0.9 05:13:32 10° S 05:15:43 17° SE 05:17:59 10° E visible
10 Sep -3.2 05:55:23 10° SW 05:58:35 75° SE 06:01:51 10° ENE visible
11 Sep -2.3 05:04:32 31° S 05:05:22 38° SE 05:08:26 10° ENE visible
